DECAYED
Showing default

GOMX4-A, 43197 (Decayed)

Orbit data source: Space-Track

GOMX4-A, 43197 was a payload satellite owned by FMI (DK) in LEO that was launched on Fri, 02 Feb 2018 UTC via a CHANG ZHENG 2D launch vehicle from the Jiuquan Satellite Launch Center, China (JSC). Payload-class satellites include a variety of spacecraft equipped with specific instruments for various scientific and technological missions. These include communications satellites like Starlink; space stations such as the ISS; scientific satellites like the Hubble; Earth observation satellites from companies like Planet Labs, Umbra, and HawkEye 360; GPS; miniature CubeSats for education and research; and military/defense satellites.

Not visible in the next 10 days
Identifier
43197, 2018-015F
Orbit
Decayed
Country
Flag of DKDK / DEN
Related business
Manufacturer
GOMSpace
Mission
Decayed Defense Imaging/Com
Bus & Motor
CUBESAT 6U, Unknown motor
Mass
8 kg wet, 8 kg dry
Launch date (UTC)
2018-02-02 (8 years ago)
Launch vehicle
CHANG ZHENG 2D
Launch site
Jiuquan Satellite Launch Center, China (JSC)
Object type
Payload
Rocket body
Debris
Shape & HBR
Box, 0.1 m
Radar Cross Section
0.105 m², Medium (>0.1 m² and < 1m²)

Expand to show TLE details & history
Last TLE update: 1 year ago

TLE from 1 year ago
0 GOMX4-A
1 43197U 18015F   24231.57785391  .12036390  27077-5  33718-3 0  9993
2 43197  97.5695  57.6561 0009227 255.6517 104.3760 16.44816160365796
Epoch: 2024-08-18T13:52Z
TLE epoch observation values (Epoch: 2024-08-18T13:52:06.577Z)
Latitude
-0.00008°
Longitude
-117.79238°
Altitude
157.776 km
Speed
7.811 km/s
True Right ascension
03h 50m 37s
True Declination
0° 00' 00"
Sunlit
Object was in daylight at epoch
Visualization orbit readout
Latitude
Unknown
Longitude
Unknown
Altitude
Unknown
Speed
Unknown
Apparent Right ascension
Unknown
Apparent Declination
Unknown
Sunlit
N/A
Visualization observer readout
Local Sidereal Time
23:16:20
Azimuth
Unknown
Elevation
Unknown
Doppler factor
Unknown
Orbital elements
Apogee altitude
155.855 km
Perigee altitude
143.808 km
Semi-major axis
6,527.968 km
Eccentricity
0.00092
Inclination
97.5695°
RAAN
57.6561°
Arg. of periapsis
255.6517°
True anomaly
104.47839°
Mean anomaly
104.376°
Eccentric anomaly
104.4272°
Mean motion
4.11506 °/min
Orbital period
87.48 mins
BSTAR
0.00033718
Loading maneuver chart data...
Computing Atmospheric mass density...
Loading historical data...
Loading historical data...
Loading historical data...
Loading historical data...
Loading historical data...
Loading historical data...
Loading historical data...

Documentation

Showing up to 5 results
|